owner,sensor,date,latitude,longitude,sea_surface_height_above_sea_level,qcFlag 
COMPS,ioos:station:USF.COMPS:SHP:1,2014-10-01T00:00:00Z,30.0600,-84.2910,0.479,1111122 
COMPS,ioos:station:USF.COMPS:SHP:1,2014-10-01T00:06:00Z,30.0600,-84.2910,0.468,1111122 
COMPS,ioos:station:USF.COMPS:SHP:1,2014-10-01T00:12:00Z,30.0600,-84.2910,0.459,1111122 
COMPS,ioos:station:USF.COMPS:SHP:1,2014-10-01T00:18:00Z,30.0600,-84.2910,0.467,1111122 
COMPS,ioos:station:USF.COMPS:SHP:1,2014-10-01T00:24:00Z,30.0600,-84.2910,0.467,1111122 
COMPS,ioos:station:USF.COMPS:SHP:1,2014-10-01T00:30:00Z,30.0600,-84.2910,0.448,1111122 
COMPS,ioos:station:USF.COMPS:SHP:1,2014-10-01T00:36:00Z,30.0600,-84.2910,0.437,1111122 
COMPS,ioos:station:USF.COMPS:SHP:1,2014-10-01T00:42:00Z,30.0600,-84.2910,0.437,1111122 
COMPS,ioos:station:USF.COMPS:SHP:1,2014-10-01T00:48:00Z,30.0600,-84.2910,0.426,1111122 
COMPS,ioos:station:USF.COMPS:SHP:1,2014-10-01T00:54:00Z,30.0600,-84.2910,0.417,1111122 
COMPS,ioos:station:USF.COMPS:SHP:1,2014-10-01T01:00:00Z,30.0600,-84.2910,0.407,1111122 
COMPS,ioos:station:USF.COMPS:SHP:1,2014-10-01T01:06:00Z,30.0600,-84.2910,0.391,1111122 
COMPS,ioos:station:USF.COMPS:SHP:1,2014-10-01T01:12:00Z,30.0600,-84.2910,0.384,1111122 
COMPS,ioos:station:USF.COMPS:SHP:1,2014-10-01T01:18:00Z,30.0600,-84.2910,0.376,1111122 
COMPS,ioos:station:USF.COMPS:SHP:1,2014-10-01T01:24:00Z,30.0600,-84.2910,0.365,1111122 
COMPS,ioos:station:USF.COMPS:SHP:1,2014-10-01T01:30:00Z,30.0600,-84.2910,0.355,1111122 
COMPS,ioos:station:USF.COMPS:SHP:1,2014-10-01T01:36:00Z,30.0600,-84.2910,0.348,1111122 
COMPS,ioos:station:USF.COMPS:SHP:1,2014-10-01T01:42:00Z,30.0600,-84.2910,0.335,1111122 
COMPS,ioos:station:USF.COMPS:SHP:1,2014-10-01T01:48:00Z,30.0600,-84.2910,0.317,1111122 
COMPS,ioos:station:USF.COMPS:SHP:1,2014-10-01T01:54:00Z,30.0600,-84.2910,0.305,1111122 
COMPS,ioos:station:USF.COMPS:SHP:1,2014-10-01T02:00:00Z,30.0600,-84.2910,0.3,1111122 
COMPS,ioos:station:USF.COMPS:SHP:1,2014-10-01T02:06:00Z,30.0600,-84.2910,0.29,1111122 
COMPS,ioos:station:USF.COMPS:SHP:1,2014-10-01T02:12:00Z,30.0600,-84.2910,0.275,1111122 
COMPS,ioos:station:USF.COMPS:SHP:1,2014-10-01T02:18:00Z,30.0600,-84.2910,0.265,1111122 
COMPS,ioos:station:USF.COMPS:SHP:1,2014-10-01T02:24:00Z,30.0600,-84.2910,0.26,1111122 
COMPS,ioos:station:USF.COMPS:SHP:1,2014-10-01T02:30:00Z,30.0600,-84.2910,0.246,1111122 
COMPS,ioos:station:USF.COMPS:SHP:1,2014-10-01T02:36:00Z,30.0600,-84.2910,0.232,1111122 
COMPS,ioos:station:USF.COMPS:SHP:1,2014-10-01T02:42:00Z,30.0600,-84.2910,0.226,1111122 
COMPS,ioos:station:USF.COMPS:SHP:1,2014-10-01T02:48:00Z,30.0600,-84.2910,0.21,1111122 
COMPS,ioos:station:USF.COMPS:SHP:1,2014-10-01T02:54:00Z,30.0600,-84.2910,0.195,1111122 
COMPS,ioos:station:USF.COMPS:SHP:1,2014-10-01T03:00:00Z,30.0600,-84.2910,0.185,1111122 
COMPS,ioos:station:USF.COMPS:SHP:1,2014-10-01T03:06:00Z,30.0600,-84.2910,0.179,1111122 
COMPS,ioos:station:USF.COMPS:SHP:1,2014-10-01T03:12:00Z,30.0600,-84.2910,0.173,1111122 
COMPS,ioos:station:USF.COMPS:SHP:1,2014-10-01T03:18:00Z,30.0600,-84.2910,0.169,1111122 
COMPS,ioos:station:USF.COMPS:SHP:1,2014-10-01T03:24:00Z,30.0600,-84.2910,0.164,1111122 
COMPS,ioos:station:USF.COMPS:SHP:1,2014-10-01T03:30:00Z,30.0600,-84.2910,0.154,1111122 
COMPS,ioos:station:USF.COMPS:SHP:1,2014-10-01T03:36:00Z,30.0600,-84.2910,0.144,1111122 
COMPS,ioos:station:USF.COMPS:SHP:1,2014-10-01T03:42:00Z,30.0600,-84.2910,0.133,1111122 
COMPS,ioos:station:USF.COMPS:SHP:1,2014-10-01T03:48:00Z,30.0600,-84.2910,0.13,1111122 
COMPS,ioos:station:USF.COMPS:SHP:1,2014-10-01T03:54:00Z,30.0600,-84.2910,0.13,1111122 
COMPS,ioos:station:USF.COMPS:SHP:1,2014-10-01T04:00:00Z,30.0600,-84.2910,0.132,1111122 
COMPS,ioos:station:USF.COMPS:SHP:1,2014-10-01T04:06:00Z,30.0600,-84.2910,0.129,1111122 
COMPS,ioos:station:USF.COMPS:SHP:1,2014-10-01T04:12:00Z,30.0600,-84.2910,0.118,1111122 
COMPS,ioos:station:USF.COMPS:SHP:1,2014-10-01T04:18:00Z,30.0600,-84.2910,0.108,1111122 
COMPS,ioos:station:USF.COMPS:SHP:1,2014-10-01T04:24:00Z,30.0600,-84.2910,0.097,1111122 
COMPS,ioos:station:USF.COMPS:SHP:1,2014-10-01T04:30:00Z,30.0600,-84.2910,0.09,1111122 
COMPS,ioos:station:USF.COMPS:SHP:1,2014-10-01T04:36:00Z,30.0600,-84.2910,0.088,1111122 
COMPS,ioos:station:USF.COMPS:SHP:1,2014-10-01T04:42:00Z,30.0600,-84.2910,0.085,1111122 
COMPS,ioos:station:USF.COMPS:SHP:1,2014-10-01T04:48:00Z,30.0600,-84.2910,0.089,1111122 
COMPS,ioos:station:USF.COMPS:SHP:1,2014-10-01T04:54:00Z,30.0600,-84.2910,0.1,1111122 
COMPS,ioos:station:USF.COMPS:SHP:1,2014-10-01T05:00:00Z,30.0600,-84.2910,0.104,1111122 
COMPS,ioos:station:USF.COMPS:SHP:1,2014-10-01T05:06:00Z,30.0600,-84.2910,0.103,1111122 
COMPS,ioos:station:USF.COMPS:SHP:1,2014-10-01T05:12:00Z,30.0600,-84.2910,0.103,1111122 
COMPS,ioos:station:USF.COMPS:SHP:1,2014-10-01T05:18:00Z,30.0600,-84.2910,0.104,1111122 
COMPS,ioos:station:USF.COMPS:SHP:1,2014-10-01T05:24:00Z,30.0600,-84.2910,0.1,1111122 
COMPS,ioos:station:USF.COMPS:SHP:1,2014-10-01T05:30:00Z,30.0600,-84.2910,0.098,1111122 
COMPS,ioos:station:USF.COMPS:SHP:1,2014-10-01T05:36:00Z,30.0600,-84.2910,0.105,1111122 
COMPS,ioos:station:USF.COMPS:SHP:1,2014-10-01T05:42:00Z,30.0600,-84.2910,0.111,1111122 
COMPS,ioos:station:USF.COMPS:SHP:1,2014-10-01T05:48:00Z,30.0600,-84.2910,0.125,1111122 
COMPS,ioos:station:USF.COMPS:SHP:1,2014-10-01T05:54:00Z,30.0600,-84.2910,0.142,1111122 
COMPS,ioos:station:USF.COMPS:SHP:1,2014-10-01T06:00:00Z,30.0600,-84.2910,0.154,1111122 
COMPS,ioos:station:USF.COMPS:SHP:1,2014-10-01T06:06:00Z,30.0600,-84.2910,0.161,1111122 
COMPS,ioos:station:USF.COMPS:SHP:1,2014-10-01T06:12:00Z,30.0600,-84.2910,0.157,1111122 
COMPS,ioos:station:USF.COMPS:SHP:1,2014-10-01T06:18:00Z,30.0600,-84.2910,0.152,1111122 
COMPS,ioos:station:USF.COMPS:SHP:1,2014-10-01T06:24:00Z,30.0600,-84.2910,0.157,1111122 
COMPS,ioos:station:USF.COMPS:SHP:1,2014-10-01T06:30:00Z,30.0600,-84.2910,0.174,1111122 
COMPS,ioos:station:USF.COMPS:SHP:1,2014-10-01T06:36:00Z,30.0600,-84.2910,0.197,1111122 
COMPS,ioos:station:USF.COMPS:SHP:1,2014-10-01T06:42:00Z,30.0600,-84.2910,0.214,1111122 
COMPS,ioos:station:USF.COMPS:SHP:1,2014-10-01T06:48:00Z,30.0600,-84.2910,0.219,1111122 
COMPS,ioos:station:USF.COMPS:SHP:1,2014-10-01T06:54:00Z,30.0600,-84.2910,0.224,1111122 
COMPS,ioos:station:USF.COMPS:SHP:1,2014-10-01T07:00:00Z,30.0600,-84.2910,0.234,1111122 
COMPS,ioos:station:USF.COMPS:SHP:1,2014-10-01T07:06:00Z,30.0600,-84.2910,0.253,1111122 
COMPS,ioos:station:USF.COMPS:SHP:1,2014-10-01T07:12:00Z,30.0600,-84.2910,0.273,1111122 
COMPS,ioos:station:USF.COMPS:SHP:1,2014-10-01T07:18:00Z,30.0600,-84.2910,0.284,1111122 
COMPS,ioos:station:USF.COMPS:SHP:1,2014-10-01T07:24:00Z,30.0600,-84.2910,0.294,1111122 
COMPS,ioos:station:USF.COMPS:SHP:1,2014-10-01T07:30:00Z,30.0600,-84.2910,0.312,1111122 
COMPS,ioos:station:USF.COMPS:SHP:1,2014-10-01T07:36:00Z,30.0600,-84.2910,0.325,1111122 
COMPS,ioos:station:USF.COMPS:SHP:1,2014-10-01T07:42:00Z,30.0600,-84.2910,0.336,1111122 
COMPS,ioos:station:USF.COMPS:SHP:1,2014-10-01T07:48:00Z,30.0600,-84.2910,0.351,1111122 
COMPS,ioos:station:USF.COMPS:SHP:1,2014-10-01T07:54:00Z,30.0600,-84.2910,0.368,1111122 
COMPS,ioos:station:USF.COMPS:SHP:1,2014-10-01T08:00:00Z,30.0600,-84.2910,0.384,1111122 
COMPS,ioos:station:USF.COMPS:SHP:1,2014-10-01T08:06:00Z,30.0600,-84.2910,0.401,1111122 
COMPS,ioos:station:USF.COMPS:SHP:1,2014-10-01T08:12:00Z,30.0600,-84.2910,0.412,1111122 
COMPS,ioos:station:USF.COMPS:SHP:1,2014-10-01T08:18:00Z,30.0600,-84.2910,0.419,1111122 
COMPS,ioos:station:USF.COMPS:SHP:1,2014-10-01T08:24:00Z,30.0600,-84.2910,0.429,1111122 
COMPS,ioos:station:USF.COMPS:SHP:1,2014-10-01T08:30:00Z,30.0600,-84.2910,0.443,1111122 
COMPS,ioos:station:USF.COMPS:SHP:1,2014-10-01T08:36:00Z,30.0600,-84.2910,0.453,1111122 
COMPS,ioos:station:USF.COMPS:SHP:1,2014-10-01T08:42:00Z,30.0600,-84.2910,0.467,1111122 
COMPS,ioos:station:USF.COMPS:SHP:1,2014-10-01T08:48:00Z,30.0600,-84.2910,0.484,1111122 
COMPS,ioos:station:USF.COMPS:SHP:1,2014-10-01T08:54:00Z,30.0600,-84.2910,0.496,1111122 
COMPS,ioos:station:USF.COMPS:SHP:1,2014-10-01T09:00:00Z,30.0600,-84.2910,0.507,1111122 
COMPS,ioos:station:USF.COMPS:SHP:1,2014-10-01T09:06:00Z,30.0600,-84.2910,0.52,1111122 
COMPS,ioos:station:USF.COMPS:SHP:1,2014-10-01T09:12:00Z,30.0600,-84.2910,0.534,1111122 
COMPS,ioos:station:USF.COMPS:SHP:1,2014-10-01T09:18:00Z,30.0600,-84.2910,0.54,1111122 
COMPS,ioos:station:USF.COMPS:SHP:1,2014-10-01T09:24:00Z,30.0600,-84.2910,0.548,1111122 
COMPS,ioos:station:USF.COMPS:SHP:1,2014-10-01T09:30:00Z,30.0600,-84.2910,0.561,1111122 
COMPS,ioos:station:USF.COMPS:SHP:1,2014-10-01T09:36:00Z,30.0600,-84.2910,0.567,1111122 
COMPS,ioos:station:USF.COMPS:SHP:1,2014-10-01T09:42:00Z,30.0600,-84.2910,0.569,1111122 
COMPS,ioos:station:USF.COMPS:SHP:1,2014-10-01T09:48:00Z,30.0600,-84.2910,0.581,1111122 
COMPS,ioos:station:USF.COMPS:SHP:1,2014-10-01T09:54:00Z,30.0600,-84.2910,0.593,1111122 
COMPS,ioos:station:USF.COMPS:SHP:1,2014-10-01T10:00:00Z,30.0600,-84.2910,0.599,1111122 
COMPS,ioos:station:USF.COMPS:SHP:1,2014-10-01T10:06:00Z,30.0600,-84.2910,0.603,1111122 
COMPS,ioos:station:USF.COMPS:SHP:1,2014-10-01T10:12:00Z,30.0600,-84.2910,0.611,1111122 
COMPS,ioos:station:USF.COMPS:SHP:1,2014-10-01T10:18:00Z,30.0600,-84.2910,0.614,1111122 
COMPS,ioos:station:USF.COMPS:SHP:1,2014-10-01T10:24:00Z,30.0600,-84.2910,0.614,1111122 
COMPS,ioos:station:USF.COMPS:SHP:1,2014-10-01T10:30:00Z,30.0600,-84.2910,0.616,1111122 
COMPS,ioos:station:USF.COMPS:SHP:1,2014-10-01T10:36:00Z,30.0600,-84.2910,0.629,1111122 
COMPS,ioos:station:USF.COMPS:SHP:1,2014-10-01T10:42:00Z,30.0600,-84.2910,0.63,1111122 
COMPS,ioos:station:USF.COMPS:SHP:1,2014-10-01T10:48:00Z,30.0600,-84.2910,0.628,1111122 
COMPS,ioos:station:USF.COMPS:SHP:1,2014-10-01T10:54:00Z,30.0600,-84.2910,0.622,1111122 
COMPS,ioos:station:USF.COMPS:SHP:1,2014-10-01T11:00:00Z,30.0600,-84.2910,0.622,1111122 
COMPS,ioos:station:USF.COMPS:SHP:1,2014-10-01T11:06:00Z,30.0600,-84.2910,0.633,1111122 
COMPS,ioos:station:USF.COMPS:SHP:1,2014-10-01T11:12:00Z,30.0600,-84.2910,0.635,1111122 
COMPS,ioos:station:USF.COMPS:SHP:1,2014-10-01T11:18:00Z,30.0600,-84.2910,0.635,1111122 
COMPS,ioos:station:USF.COMPS:SHP:1,2014-10-01T11:24:00Z,30.0600,-84.2910,0.638,1111122 
COMPS,ioos:station:USF.COMPS:SHP:1,2014-10-01T11:30:00Z,30.0600,-84.2910,0.625,1111122 
COMPS,ioos:station:USF.COMPS:SHP:1,2014-10-01T11:36:00Z,30.0600,-84.2910,0.616,1111122 
COMPS,ioos:station:USF.COMPS:SHP:1,2014-10-01T11:42:00Z,30.0600,-84.2910,0.616,1111122 
COMPS,ioos:station:USF.COMPS:SHP:1,2014-10-01T11:48:00Z,30.0600,-84.2910,0.61,1111122 
COMPS,ioos:station:USF.COMPS:SHP:1,2014-10-01T11:54:00Z,30.0600,-84.2910,0.605,1111122 
COMPS,ioos:station:USF.COMPS:SHP:1,2014-10-01T12:00:00Z,30.0600,-84.2910,0.604,1111122 
COMPS,ioos:station:USF.COMPS:SHP:1,2014-10-01T12:06:00Z,30.0600,-84.2910,0.59,1111122 
COMPS,ioos:station:USF.COMPS:SHP:1,2014-10-01T12:12:00Z,30.0600,-84.2910,0.573,1111122 
COMPS,ioos:station:USF.COMPS:SHP:1,2014-10-01T12:18:00Z,30.0600,-84.2910,0.568,1111122 
COMPS,ioos:station:USF.COMPS:SHP:1,2014-10-01T12:24:00Z,30.0600,-84.2910,0.559,1111122 
COMPS,ioos:station:USF.COMPS:SHP:1,2014-10-01T12:30:00Z,30.0600,-84.2910,0.55,1111122 
COMPS,ioos:station:USF.COMPS:SHP:1,2014-10-01T12:36:00Z,30.0600,-84.2910,0.551,1111122 
COMPS,ioos:station:USF.COMPS:SHP:1,2014-10-01T12:42:00Z,30.0600,-84.2910,0.534,1111122 
COMPS,ioos:station:USF.COMPS:SHP:1,2014-10-01T12:48:00Z,30.0600,-84.2910,0.512,1111122 
COMPS,ioos:station:USF.COMPS:SHP:1,2014-10-01T12:54:00Z,30.0600,-84.2910,0.502,1111122 
COMPS,ioos:station:USF.COMPS:SHP:1,2014-10-01T13:00:00Z,30.0600,-84.2910,0.488,1111122 
COMPS,ioos:station:USF.COMPS:SHP:1,2014-10-01T13:06:00Z,30.0600,-84.2910,0.468,1111122 
COMPS,ioos:station:USF.COMPS:SHP:1,2014-10-01T13:12:00Z,30.0600,-84.2910,0.458,1111122 
COMPS,ioos:station:USF.COMPS:SHP:1,2014-10-01T13:18:00Z,30.0600,-84.2910,0.443,1111122 
COMPS,ioos:station:USF.COMPS:SHP:1,2014-10-01T13:24:00Z,30.0600,-84.2910,0.426,1111122 
COMPS,ioos:station:USF.COMPS:SHP:1,2014-10-01T13:30:00Z,30.0600,-84.2910,0.406,1111122 
COMPS,ioos:station:USF.COMPS:SHP:1,2014-10-01T13:36:00Z,30.0600,-84.2910,0.396,1111122 
COMPS,ioos:station:USF.COMPS:SHP:1,2014-10-01T13:42:00Z,30.0600,-84.2910,0.374,1111122 
COMPS,ioos:station:USF.COMPS:SHP:1,2014-10-01T13:48:00Z,30.0600,-84.2910,0.35,1111122 
COMPS,ioos:station:USF.COMPS:SHP:1,2014-10-01T13:54:00Z,30.0600,-84.2910,0.333,1111122 
COMPS,ioos:station:USF.COMPS:SHP:1,2014-10-01T14:00:00Z,30.0600,-84.2910,0.319,1111122 
COMPS,ioos:station:USF.COMPS:SHP:1,2014-10-01T14:06:00Z,30.0600,-84.2910,0.3,1111122 
COMPS,ioos:station:USF.COMPS:SHP:1,2014-10-01T14:12:00Z,30.0600,-84.2910,0.276,1111122 
COMPS,ioos:station:USF.COMPS:SHP:1,2014-10-01T14:18:00Z,30.0600,-84.2910,0.254,1111122 
COMPS,ioos:station:USF.COMPS:SHP:1,2014-10-01T14:24:00Z,30.0600,-84.2910,0.229,1111122 
COMPS,ioos:station:USF.COMPS:SHP:1,2014-10-01T14:30:00Z,30.0600,-84.2910,0.213,1111122 
COMPS,ioos:station:USF.COMPS:SHP:1,2014-10-01T14:36:00Z,30.0600,-84.2910,0.201,1111122 
COMPS,ioos:station:USF.COMPS:SHP:1,2014-10-01T14:42:00Z,30.0600,-84.2910,0.183,1111122 
COMPS,ioos:station:USF.COMPS:SHP:1,2014-10-01T14:48:00Z,30.0600,-84.2910,0.159,1111122 
COMPS,ioos:station:USF.COMPS:SHP:1,2014-10-01T14:54:00Z,30.0600,-84.2910,0.136,1111122 
COMPS,ioos:station:USF.COMPS:SHP:1,2014-10-01T15:00:00Z,30.0600,-84.2910,0.121,1111122 
COMPS,ioos:station:USF.COMPS:SHP:1,2014-10-01T15:06:00Z,30.0600,-84.2910,0.104,1111122 
COMPS,ioos:station:USF.COMPS:SHP:1,2014-10-01T15:12:00Z,30.0600,-84.2910,0.088,1111122 
COMPS,ioos:station:USF.COMPS:SHP:1,2014-10-01T15:18:00Z,30.0600,-84.2910,0.074,1111122 
COMPS,ioos:station:USF.COMPS:SHP:1,2014-10-01T15:24:00Z,30.0600,-84.2910,0.056,1111122 
COMPS,ioos:station:USF.COMPS:SHP:1,2014-10-01T15:30:00Z,30.0600,-84.2910,0.033,1111122 
COMPS,ioos:station:USF.COMPS:SHP:1,2014-10-01T15:36:00Z,30.0600,-84.2910,0.012,1111122 
COMPS,ioos:station:USF.COMPS:SHP:1,2014-10-01T15:42:00Z,30.0600,-84.2910,-0.004,1111122 
COMPS,ioos:station:USF.COMPS:SHP:1,2014-10-01T15:48:00Z,30.0600,-84.2910,-0.02,1111122 
COMPS,ioos:station:USF.COMPS:SHP:1,2014-10-01T15:54:00Z,30.0600,-84.2910,-0.035,1111122 
COMPS,ioos:station:USF.COMPS:SHP:1,2014-10-01T16:00:00Z,30.0600,-84.2910,-0.048,1111122 
COMPS,ioos:station:USF.COMPS:SHP:1,2014-10-01T16:06:00Z,30.0600,-84.2910,-0.065,1111122 
COMPS,ioos:station:USF.COMPS:SHP:1,2014-10-01T16:12:00Z,30.0600,-84.2910,-0.084,1111122 
COMPS,ioos:station:USF.COMPS:SHP:1,2014-10-01T16:18:00Z,30.0600,-84.2910,-0.099,1111122 
COMPS,ioos:station:USF.COMPS:SHP:1,2014-10-01T16:24:00Z,30.0600,-84.2910,-0.106,1111122 
COMPS,ioos:station:USF.COMPS:SHP:1,2014-10-01T16:30:00Z,30.0600,-84.2910,-0.117,1111122 
COMPS,ioos:station:USF.COMPS:SHP:1,2014-10-01T16:36:00Z,30.0600,-84.2910,-0.136,1111122 
COMPS,ioos:station:USF.COMPS:SHP:1,2014-10-01T16:42:00Z,30.0600,-84.2910,-0.15,1111122 
COMPS,ioos:station:USF.COMPS:SHP:1,2014-10-01T16:48:00Z,30.0600,-84.2910,-0.159,1111122 
COMPS,ioos:station:USF.COMPS:SHP:1,2014-10-01T16:54:00Z,30.0600,-84.2910,-0.167,1111122 
COMPS,ioos:station:USF.COMPS:SHP:1,2014-10-01T17:00:00Z,30.0600,-84.2910,-0.178,1111122 
COMPS,ioos:station:USF.COMPS:SHP:1,2014-10-01T17:06:00Z,30.0600,-84.2910,-0.193,1111122 
COMPS,ioos:station:USF.COMPS:SHP:1,2014-10-01T17:12:00Z,30.0600,-84.2910,-0.208,1111122 
COMPS,ioos:station:USF.COMPS:SHP:1,2014-10-01T17:18:00Z,30.0600,-84.2910,-0.219,1111122 
COMPS,ioos:station:USF.COMPS:SHP:1,2014-10-01T17:24:00Z,30.0600,-84.2910,-0.226,1111122 
COMPS,ioos:station:USF.COMPS:SHP:1,2014-10-01T17:30:00Z,30.0600,-84.2910,-0.23,1111122 
COMPS,ioos:station:USF.COMPS:SHP:1,2014-10-01T17:36:00Z,30.0600,-84.2910,-0.234,1111122 
COMPS,ioos:station:USF.COMPS:SHP:1,2014-10-01T17:42:00Z,30.0600,-84.2910,-0.236,1111122 
COMPS,ioos:station:USF.COMPS:SHP:1,2014-10-01T17:48:00Z,30.0600,-84.2910,-0.238,1111122 
COMPS,ioos:station:USF.COMPS:SHP:1,2014-10-01T17:54:00Z,30.0600,-84.2910,-0.241,1111122 
COMPS,ioos:station:USF.COMPS:SHP:1,2014-10-01T18:00:00Z,30.0600,-84.2910,-0.251,1111122 
COMPS,ioos:station:USF.COMPS:SHP:1,2014-10-01T18:06:00Z,30.0600,-84.2910,-0.263,1111122 
COMPS,ioos:station:USF.COMPS:SHP:1,2014-10-01T18:12:00Z,30.0600,-84.2910,-0.27,1111122 
COMPS,ioos:station:USF.COMPS:SHP:1,2014-10-01T18:18:00Z,30.0600,-84.2910,-0.276,1111122 
COMPS,ioos:station:USF.COMPS:SHP:1,2014-10-01T18:24:00Z,30.0600,-84.2910,-0.28,1111122 
COMPS,ioos:station:USF.COMPS:SHP:1,2014-10-01T18:30:00Z,30.0600,-84.2910,-0.282,1111122 
COMPS,ioos:station:USF.COMPS:SHP:1,2014-10-01T18:36:00Z,30.0600,-84.2910,-0.283,1111122 
COMPS,ioos:station:USF.COMPS:SHP:1,2014-10-01T18:42:00Z,30.0600,-84.2910,-0.284,1111122 
COMPS,ioos:station:USF.COMPS:SHP:1,2014-10-01T18:48:00Z,30.0600,-84.2910,-0.28,1111122 
COMPS,ioos:station:USF.COMPS:SHP:1,2014-10-01T18:54:00Z,30.0600,-84.2910,-0.272,1111122 
COMPS,ioos:station:USF.COMPS:SHP:1,2014-10-01T19:00:00Z,30.0600,-84.2910,-0.263,1111122 
COMPS,ioos:station:USF.COMPS:SHP:1,2014-10-01T19:06:00Z,30.0600,-84.2910,-0.255,1111122 
COMPS,ioos:station:USF.COMPS:SHP:1,2014-10-01T19:12:00Z,30.0600,-84.2910,-0.249,1111122 
COMPS,ioos:station:USF.COMPS:SHP:1,2014-10-01T19:18:00Z,30.0600,-84.2910,-0.241,1111122 
COMPS,ioos:station:USF.COMPS:SHP:1,2014-10-01T19:24:00Z,30.0600,-84.2910,-0.228,1111122 
COMPS,ioos:station:USF.COMPS:SHP:1,2014-10-01T19:30:00Z,30.0600,-84.2910,-0.22,1111122 
COMPS,ioos:station:USF.COMPS:SHP:1,2014-10-01T19:36:00Z,30.0600,-84.2910,-0.216,1111122 
COMPS,ioos:station:USF.COMPS:SHP:1,2014-10-01T19:42:00Z,30.0600,-84.2910,-0.208,1111122 
COMPS,ioos:station:USF.COMPS:SHP:1,2014-10-01T19:48:00Z,30.0600,-84.2910,-0.191,1111122 
COMPS,ioos:station:USF.COMPS:SHP:1,2014-10-01T19:54:00Z,30.0600,-84.2910,-0.178,1111122 
COMPS,ioos:station:USF.COMPS:SHP:1,2014-10-01T20:00:00Z,30.0600,-84.2910,-0.17,1111122 
COMPS,ioos:station:USF.COMPS:SHP:1,2014-10-01T20:06:00Z,30.0600,-84.2910,-0.158,1111122 
COMPS,ioos:station:USF.COMPS:SHP:1,2014-10-01T20:12:00Z,30.0600,-84.2910,-0.141,1111122 
COMPS,ioos:station:USF.COMPS:SHP:1,2014-10-01T20:18:00Z,30.0600,-84.2910,-0.126,1111122 
COMPS,ioos:station:USF.COMPS:SHP:1,2014-10-01T20:24:00Z,30.0600,-84.2910,-0.113,1111122 
COMPS,ioos:station:USF.COMPS:SHP:1,2014-10-01T20:30:00Z,30.0600,-84.2910,-0.091,1111122 
COMPS,ioos:station:USF.COMPS:SHP:1,2014-10-01T20:36:00Z,30.0600,-84.2910,-0.065,1111122 
COMPS,ioos:station:USF.COMPS:SHP:1,2014-10-01T20:42:00Z,30.0600,-84.2910,-0.048,1111122 
COMPS,ioos:station:USF.COMPS:SHP:1,2014-10-01T20:48:00Z,30.0600,-84.2910,-0.032,1111122 
COMPS,ioos:station:USF.COMPS:SHP:1,2014-10-01T20:54:00Z,30.0600,-84.2910,-0.016,1111122 
COMPS,ioos:station:USF.COMPS:SHP:1,2014-10-01T21:00:00Z,30.0600,-84.2910,-0.004,1111122 
COMPS,ioos:station:USF.COMPS:SHP:1,2014-10-01T21:06:00Z,30.0600,-84.2910,0.013,1111122 
COMPS,ioos:station:USF.COMPS:SHP:1,2014-10-01T21:12:00Z,30.0600,-84.2910,0.035,1111122 
COMPS,ioos:station:USF.COMPS:SHP:1,2014-10-01T21:18:00Z,30.0600,-84.2910,0.057,1111122 
COMPS,ioos:station:USF.COMPS:SHP:1,2014-10-01T21:24:00Z,30.0600,-84.2910,0.076,1111122 
COMPS,ioos:station:USF.COMPS:SHP:1,2014-10-01T21:30:00Z,30.0600,-84.2910,0.096,1111122 
COMPS,ioos:station:USF.COMPS:SHP:1,2014-10-01T21:36:00Z,30.0600,-84.2910,0.114,1111122 
COMPS,ioos:station:USF.COMPS:SHP:1,2014-10-01T21:42:00Z,30.0600,-84.2910,0.127,1111122 
COMPS,ioos:station:USF.COMPS:SHP:1,2014-10-01T21:48:00Z,30.0600,-84.2910,0.143,1111122 
COMPS,ioos:station:USF.COMPS:SHP:1,2014-10-01T21:54:00Z,30.0600,-84.2910,0.163,1111122 
COMPS,ioos:station:USF.COMPS:SHP:1,2014-10-01T22:00:00Z,30.0600,-84.2910,0.184,1111122 
COMPS,ioos:station:USF.COMPS:SHP:1,2014-10-01T22:06:00Z,30.0600,-84.2910,0.2,1111122 
COMPS,ioos:station:USF.COMPS:SHP:1,2014-10-01T22:12:00Z,30.0600,-84.2910,0.211,1111122 
COMPS,ioos:station:USF.COMPS:SHP:1,2014-10-01T22:18:00Z,30.0600,-84.2910,0.218,1111122 
COMPS,ioos:station:USF.COMPS:SHP:1,2014-10-01T22:24:00Z,30.0600,-84.2910,0.225,1111122 
COMPS,ioos:station:USF.COMPS:SHP:1,2014-10-01T22:30:00Z,30.0600,-84.2910,0.238,1111122 
COMPS,ioos:station:USF.COMPS:SHP:1,2014-10-01T22:36:00Z,30.0600,-84.2910,0.255,1111122 
COMPS,ioos:station:USF.COMPS:SHP:1,2014-10-01T22:42:00Z,30.0600,-84.2910,0.274,1111122 
COMPS,ioos:station:USF.COMPS:SHP:1,2014-10-01T22:48:00Z,30.0600,-84.2910,0.288,1111122 
COMPS,ioos:station:USF.COMPS:SHP:1,2014-10-01T22:54:00Z,30.0600,-84.2910,0.3,1111122 
COMPS,ioos:station:USF.COMPS:SHP:1,2014-10-01T23:00:00Z,30.0600,-84.2910,0.312,1111122 
COMPS,ioos:station:USF.COMPS:SHP:1,2014-10-01T23:06:00Z,30.0600,-84.2910,0.322,1111122 
COMPS,ioos:station:USF.COMPS:SHP:1,2014-10-01T23:12:00Z,30.0600,-84.2910,0.336,1111122 
COMPS,ioos:station:USF.COMPS:SHP:1,2014-10-01T23:18:00Z,30.0600,-84.2910,0.354,1111122 
COMPS,ioos:station:USF.COMPS:SHP:1,2014-10-01T23:24:00Z,30.0600,-84.2910,0.363,1111122 
COMPS,ioos:station:USF.COMPS:SHP:1,2014-10-01T23:30:00Z,30.0600,-84.2910,0.366,1111122 
COMPS,ioos:station:USF.COMPS:SHP:1,2014-10-01T23:36:00Z,30.0600,-84.2910,0.375,1111122 
COMPS,ioos:station:USF.COMPS:SHP:1,2014-10-01T23:42:00Z,30.0600,-84.2910,0.39,1111122 
COMPS,ioos:station:USF.COMPS:SHP:1,2014-10-01T23:48:00Z,30.0600,-84.2910,0.404,1111122 
COMPS,ioos:station:USF.COMPS:SHP:1,2014-10-01T23:54:00Z,30.0600,-84.2910,0.416,1111122 
COMPS,ioos:station:USF.COMPS:SHP:1,2014-10-02T00:00:00Z,30.0600,-84.2910,0.423,1111122 
COMPS,ioos:station:USF.COMPS:SHP:1,2014-10-02T00:06:00Z,30.0600,-84.2910,0.428,1111122 
COMPS,ioos:station:USF.COMPS:SHP:1,2014-10-02T00:12:00Z,30.0600,-84.2910,0.429,1111122 
COMPS,ioos:station:USF.COMPS:SHP:1,2014-10-02T00:18:00Z,30.0600,-84.2910,0.433,1111122 
COMPS,ioos:station:USF.COMPS:SHP:1,2014-10-02T00:24:00Z,30.0600,-84.2910,0.439,1111122 
COMPS,ioos:station:USF.COMPS:SHP:1,2014-10-02T00:30:00Z,30.0600,-84.2910,0.442,1111122 
COMPS,ioos:station:USF.COMPS:SHP:1,2014-10-02T00:36:00Z,30.0600,-84.2910,0.447,1111122 
COMPS,ioos:station:USF.COMPS:SHP:1,2014-10-02T00:42:00Z,30.0600,-84.2910,0.452,1111122 
COMPS,ioos:station:USF.COMPS:SHP:1,2014-10-02T00:48:00Z,30.0600,-84.2910,0.456,1111122 
COMPS,ioos:station:USF.COMPS:SHP:1,2014-10-02T00:54:00Z,30.0600,-84.2910,0.457,1111122 
COMPS,ioos:station:USF.COMPS:SHP:1,2014-10-02T01:00:00Z,30.0600,-84.2910,0.457,1111122 
COMPS,ioos:station:USF.COMPS:SHP:1,2014-10-02T01:06:00Z,30.0600,-84.2910,0.46,1111122 
COMPS,ioos:station:USF.COMPS:SHP:1,2014-10-02T01:12:00Z,30.0600,-84.2910,0.459,1111122 
COMPS,ioos:station:USF.COMPS:SHP:1,2014-10-02T01:18:00Z,30.0600,-84.2910,0.452,1111122 
COMPS,ioos:station:USF.COMPS:SHP:1,2014-10-02T01:24:00Z,30.0600,-84.2910,0.454,1111122 
COMPS,ioos:station:USF.COMPS:SHP:1,2014-10-02T01:30:00Z,30.0600,-84.2910,0.457,1111122 
COMPS,ioos:station:USF.COMPS:SHP:1,2014-10-02T01:36:00Z,30.0600,-84.2910,0.454,1111122 
COMPS,ioos:station:USF.COMPS:SHP:1,2014-10-02T01:42:00Z,30.0600,-84.2910,0.45,1111122 
COMPS,ioos:station:USF.COMPS:SHP:1,2014-10-02T01:48:00Z,30.0600,-84.2910,0.44,1111122 
COMPS,ioos:station:USF.COMPS:SHP:1,2014-10-02T01:54:00Z,30.0600,-84.2910,0.428,1111122 
COMPS,ioos:station:USF.COMPS:SHP:1,2014-10-02T02:00:00Z,30.0600,-84.2910,0.427,1111122 
COMPS,ioos:station:USF.COMPS:SHP:1,2014-10-02T02:06:00Z,30.0600,-84.2910,0.427,1111122 
COMPS,ioos:station:USF.COMPS:SHP:1,2014-10-02T02:12:00Z,30.0600,-84.2910,0.421,1111122 
COMPS,ioos:station:USF.COMPS:SHP:1,2014-10-02T02:18:00Z,30.0600,-84.2910,0.423,1111122 
COMPS,ioos:station:USF.COMPS:SHP:1,2014-10-02T02:24:00Z,30.0600,-84.2910,0.416,1111122 
COMPS,ioos:station:USF.COMPS:SHP:1,2014-10-02T02:30:00Z,30.0600,-84.2910,0.408,1111122 
COMPS,ioos:station:USF.COMPS:SHP:1,2014-10-02T02:36:00Z,30.0600,-84.2910,0.399,1111122 
COMPS,ioos:station:USF.COMPS:SHP:1,2014-10-02T02:42:00Z,30.0600,-84.2910,0.393,1111122 
COMPS,ioos:station:USF.COMPS:SHP:1,2014-10-02T02:48:00Z,30.0600,-84.2910,0.383,1111122 
COMPS,ioos:station:USF.COMPS:SHP:1,2014-10-02T02:54:00Z,30.0600,-84.2910,0.375,1111122 
COMPS,ioos:station:USF.COMPS:SHP:1,2014-10-02T03:00:00Z,30.0600,-84.2910,0.374,1111122 